owner,sensor,date,latitude,longitude,vertical_datum,sea_water_temperature,qcFlag 
NDBC,ioos:station:NOAA.NDBC:FWYF1:1,2017-09-01T00:00:00Z,25.5910,-80.0970,0.0,29.9,2 
NDBC,ioos:station:NOAA.NDBC:FWYF1:1,2017-09-01T01:00:00Z,25.5910,-80.0970,0.0,30.0,2 
NDBC,ioos:station:NOAA.NDBC:FWYF1:1,2017-09-01T02:00:00Z,25.5910,-80.0970,0.0,30.1,2 
NDBC,ioos:station:NOAA.NDBC:FWYF1:1,2017-09-01T03:00:00Z,25.5910,-80.0970,0.0,30.2,2 
NDBC,ioos:station:NOAA.NDBC:FWYF1:1,2017-09-01T04:00:00Z,25.5910,-80.0970,0.0,30.0,2 
NDBC,ioos:station:NOAA.NDBC:FWYF1:1,2017-09-01T05:00:00Z,25.5910,-80.0970,0.0,30.0,2 
NDBC,ioos:station:NOAA.NDBC:FWYF1:1,2017-09-01T06:00:00Z,25.5910,-80.0970,0.0,29.8,2 
NDBC,ioos:station:NOAA.NDBC:FWYF1:1,2017-09-01T07:00:00Z,25.5910,-80.0970,0.0,29.9,2 
NDBC,ioos:station:NOAA.NDBC:FWYF1:1,2017-09-01T08:00:00Z,25.5910,-80.0970,0.0,29.9,2 
NDBC,ioos:station:NOAA.NDBC:FWYF1:1,2017-09-01T09:00:00Z,25.5910,-80.0970,0.0,29.8,2 
NDBC,ioos:station:NOAA.NDBC:FWYF1:1,2017-09-01T10:00:00Z,25.5910,-80.0970,0.0,29.8,2 
NDBC,ioos:station:NOAA.NDBC:FWYF1:1,2017-09-01T11:00:00Z,25.5910,-80.0970,0.0,29.8,2 
NDBC,ioos:station:NOAA.NDBC:FWYF1:1,2017-09-01T12:00:00Z,25.5910,-80.0970,0.0,29.8,2 
NDBC,ioos:station:NOAA.NDBC:FWYF1:1,2017-09-01T13:00:00Z,25.5910,-80.0970,0.0,29.9,2 
NDBC,ioos:station:NOAA.NDBC:FWYF1:1,2017-09-01T14:00:00Z,25.5910,-80.0970,0.0,29.9,2 
NDBC,ioos:station:NOAA.NDBC:FWYF1:1,2017-09-01T15:00:00Z,25.5910,-80.0970,0.0,30.0,2 
NDBC,ioos:station:NOAA.NDBC:FWYF1:1,2017-09-01T16:00:00Z,25.5910,-80.0970,0.0,30.1,2 
NDBC,ioos:station:NOAA.NDBC:FWYF1:1,2017-09-01T17:00:00Z,25.5910,-80.0970,0.0,30.3,2 
NDBC,ioos:station:NOAA.NDBC:FWYF1:1,2017-09-01T18:00:00Z,25.5910,-80.0970,0.0,30.4,2 
NDBC,ioos:station:NOAA.NDBC:FWYF1:1,2017-09-01T19:00:00Z,25.5910,-80.0970,0.0,30.6,2 
NDBC,ioos:station:NOAA.NDBC:FWYF1:1,2017-09-01T20:00:00Z,25.5910,-80.0970,0.0,30.4,2 
NDBC,ioos:station:NOAA.NDBC:FWYF1:1,2017-09-01T21:00:00Z,25.5910,-80.0970,0.0,30.4,2 
NDBC,ioos:station:NOAA.NDBC:FWYF1:1,2017-09-01T22:00:00Z,25.5910,-80.0970,0.0,30.2,2 
NDBC,ioos:station:NOAA.NDBC:FWYF1:1,2017-09-02T00:00:00Z,25.5910,-80.0970,0.0,30.0,2 
NDBC,ioos:station:NOAA.NDBC:FWYF1:1,2017-09-02T01:00:00Z,25.5910,-80.0970,0.0,30.0,2 
NDBC,ioos:station:NOAA.NDBC:FWYF1:1,2017-09-02T02:00:00Z,25.5910,-80.0970,0.0,30.0,2 
NDBC,ioos:station:NOAA.NDBC:FWYF1:1,2017-09-02T03:00:00Z,25.5910,-80.0970,0.0,30.0,2 
NDBC,ioos:station:NOAA.NDBC:FWYF1:1,2017-09-02T04:00:00Z,25.5910,-80.0970,0.0,30.2,2 
NDBC,ioos:station:NOAA.NDBC:FWYF1:1,2017-09-02T05:00:00Z,25.5910,-80.0970,0.0,30.4,2 
NDBC,ioos:station:NOAA.NDBC:FWYF1:1,2017-09-02T06:00:00Z,25.5910,-80.0970,0.0,30.4,2 
NDBC,ioos:station:NOAA.NDBC:FWYF1:1,2017-09-02T07:00:00Z,25.5910,-80.0970,0.0,30.3,2 
NDBC,ioos:station:NOAA.NDBC:FWYF1:1,2017-09-02T08:00:00Z,25.5910,-80.0970,0.0,30.1,2 
NDBC,ioos:station:NOAA.NDBC:FWYF1:1,2017-09-02T09:00:00Z,25.5910,-80.0970,0.0,30.0,2 
NDBC,ioos:station:NOAA.NDBC:FWYF1:1,2017-09-02T10:00:00Z,25.5910,-80.0970,0.0,29.9,2 
NDBC,ioos:station:NOAA.NDBC:FWYF1:1,2017-09-02T11:00:00Z,25.5910,-80.0970,0.0,29.8,2 
NDBC,ioos:station:NOAA.NDBC:FWYF1:1,2017-09-02T12:00:00Z,25.5910,-80.0970,0.0,29.8,2 
NDBC,ioos:station:NOAA.NDBC:FWYF1:1,2017-09-02T13:00:00Z,25.5910,-80.0970,0.0,29.8,2 
NDBC,ioos:station:NOAA.NDBC:FWYF1:1,2017-09-02T14:00:00Z,25.5910,-80.0970,0.0,29.8,2 
NDBC,ioos:station:NOAA.NDBC:FWYF1:1,2017-09-02T15:00:00Z,25.5910,-80.0970,0.0,29.8,2 
NDBC,ioos:station:NOAA.NDBC:FWYF1:1,2017-09-02T16:00:00Z,25.5910,-80.0970,0.0,29.8,2 
NDBC,ioos:station:NOAA.NDBC:FWYF1:1,2017-09-02T17:00:00Z,25.5910,-80.0970,0.0,29.9,2 
NDBC,ioos:station:NOAA.NDBC:FWYF1:1,2017-09-02T18:00:00Z,25.5910,-80.0970,0.0,30.0,2 
NDBC,ioos:station:NOAA.NDBC:FWYF1:1,2017-09-02T19:00:00Z,25.5910,-80.0970,0.0,30.1,2 
NDBC,ioos:station:NOAA.NDBC:FWYF1:1,2017-09-02T20:00:00Z,25.5910,-80.0970,0.0,30.3,2 
NDBC,ioos:station:NOAA.NDBC:FWYF1:1,2017-09-02T21:00:00Z,25.5910,-80.0970,0.0,30.4,2 
NDBC,ioos:station:NOAA.NDBC:FWYF1:1,2017-09-02T22:00:00Z,25.5910,-80.0970,0.0,30.1,2 
NDBC,ioos:station:NOAA.NDBC:FWYF1:1,2017-09-03T00:00:00Z,25.5910,-80.0970,0.0,29.9,2 
NDBC,ioos:station:NOAA.NDBC:FWYF1:1,2017-09-03T01:00:00Z,25.5910,-80.0970,0.0,29.9,2 
NDBC,ioos:station:NOAA.NDBC:FWYF1:1,2017-09-03T02:00:00Z,25.5910,-80.0970,0.0,29.9,2 
NDBC,ioos:station:NOAA.NDBC:FWYF1:1,2017-09-03T03:00:00Z,25.5910,-80.0970,0.0,29.8,2 
NDBC,ioos:station:NOAA.NDBC:FWYF1:1,2017-09-03T04:00:00Z,25.5910,-80.0970,0.0,29.9,2 
NDBC,ioos:station:NOAA.NDBC:FWYF1:1,2017-09-03T05:00:00Z,25.5910,-80.0970,0.0,30.1,2 
NDBC,ioos:station:NOAA.NDBC:FWYF1:1,2017-09-03T06:00:00Z,25.5910,-80.0970,0.0,30.2,2 
NDBC,ioos:station:NOAA.NDBC:FWYF1:1,2017-09-03T07:00:00Z,25.5910,-80.0970,0.0,30.2,2 
NDBC,ioos:station:NOAA.NDBC:FWYF1:1,2017-09-03T08:00:00Z,25.5910,-80.0970,0.0,30.0,2 
NDBC,ioos:station:NOAA.NDBC:FWYF1:1,2017-09-03T09:00:00Z,25.5910,-80.0970,0.0,30.0,2 
NDBC,ioos:station:NOAA.NDBC:FWYF1:1,2017-09-03T10:00:00Z,25.5910,-80.0970,0.0,30.0,2 
NDBC,ioos:station:NOAA.NDBC:FWYF1:1,2017-09-03T11:00:00Z,25.5910,-80.0970,0.0,29.9,2 
NDBC,ioos:station:NOAA.NDBC:FWYF1:1,2017-09-03T12:00:00Z,25.5910,-80.0970,0.0,29.8,2 
NDBC,ioos:station:NOAA.NDBC:FWYF1:1,2017-09-03T13:00:00Z,25.5910,-80.0970,0.0,29.8,2 
NDBC,ioos:station:NOAA.NDBC:FWYF1:1,2017-09-03T14:00:00Z,25.5910,-80.0970,0.0,29.9,2 
NDBC,ioos:station:NOAA.NDBC:FWYF1:1,2017-09-03T15:00:00Z,25.5910,-80.0970,0.0,30.1,2 
NDBC,ioos:station:NOAA.NDBC:FWYF1:1,2017-09-03T16:00:00Z,25.5910,-80.0970,0.0,30.4,2 
NDBC,ioos:station:NOAA.NDBC:FWYF1:1,2017-09-03T17:00:00Z,25.5910,-80.0970,0.0,30.5,2 
NDBC,ioos:station:NOAA.NDBC:FWYF1:1,2017-09-03T18:00:00Z,25.5910,-80.0970,0.0,30.6,2 
NDBC,ioos:station:NOAA.NDBC:FWYF1:1,2017-09-03T19:00:00Z,25.5910,-80.0970,0.0,30.7,2 
NDBC,ioos:station:NOAA.NDBC:FWYF1:1,2017-09-03T20:00:00Z,25.5910,-80.0970,0.0,30.7,2 
NDBC,ioos:station:NOAA.NDBC:FWYF1:1,2017-09-03T21:00:00Z,25.5910,-80.0970,0.0,30.8,2 
NDBC,ioos:station:NOAA.NDBC:FWYF1:1,2017-09-03T22:00:00Z,25.5910,-80.0970,0.0,30.8,2 
NDBC,ioos:station:NOAA.NDBC:FWYF1:1,2017-09-03T23:00:00Z,25.5910,-80.0970,0.0,30.5,2 
NDBC,ioos:station:NOAA.NDBC:FWYF1:1,2017-09-04T00:00:00Z,25.5910,-80.0970,0.0,30.4,2 
NDBC,ioos:station:NOAA.NDBC:FWYF1:1,2017-09-04T01:00:00Z,25.5910,-80.0970,0.0,30.6,2 
NDBC,ioos:station:NOAA.NDBC:FWYF1:1,2017-09-04T02:00:00Z,25.5910,-80.0970,0.0,30.5,2 
NDBC,ioos:station:NOAA.NDBC:FWYF1:1,2017-09-04T03:00:00Z,25.5910,-80.0970,0.0,30.6,2 
NDBC,ioos:station:NOAA.NDBC:FWYF1:1,2017-09-04T04:00:00Z,25.5910,-80.0970,0.0,30.6,2 
NDBC,ioos:station:NOAA.NDBC:FWYF1:1,2017-09-04T05:00:00Z,25.5910,-80.0970,0.0,30.5,2 
NDBC,ioos:station:NOAA.NDBC:FWYF1:1,2017-09-04T06:00:00Z,25.5910,-80.0970,0.0,30.5,2 
NDBC,ioos:station:NOAA.NDBC:FWYF1:1,2017-09-04T07:00:00Z,25.5910,-80.0970,0.0,30.5,2 
NDBC,ioos:station:NOAA.NDBC:FWYF1:1,2017-09-04T08:00:00Z,25.5910,-80.0970,0.0,30.2,2 
NDBC,ioos:station:NOAA.NDBC:FWYF1:1,2017-09-04T09:00:00Z,25.5910,-80.0970,0.0,29.9,2 
NDBC,ioos:station:NOAA.NDBC:FWYF1:1,2017-09-04T10:00:00Z,25.5910,-80.0970,0.0,29.9,2 
NDBC,ioos:station:NOAA.NDBC:FWYF1:1,2017-09-04T11:00:00Z,25.5910,-80.0970,0.0,29.8,2 
NDBC,ioos:station:NOAA.NDBC:FWYF1:1,2017-09-04T12:00:00Z,25.5910,-80.0970,0.0,29.9,2 
NDBC,ioos:station:NOAA.NDBC:FWYF1:1,2017-09-04T14:00:00Z,25.5910,-80.0970,0.0,29.9,2 
NDBC,ioos:station:NOAA.NDBC:FWYF1:1,2017-09-04T15:00:00Z,25.5910,-80.0970,0.0,30.1,2 
NDBC,ioos:station:NOAA.NDBC:FWYF1:1,2017-09-04T16:00:00Z,25.5910,-80.0970,0.0,30.2,2 
NDBC,ioos:station:NOAA.NDBC:FWYF1:1,2017-09-04T17:00:00Z,25.5910,-80.0970,0.0,30.3,2 
NDBC,ioos:station:NOAA.NDBC:FWYF1:1,2017-09-04T18:00:00Z,25.5910,-80.0970,0.0,30.7,2 
NDBC,ioos:station:NOAA.NDBC:FWYF1:1,2017-09-04T19:00:00Z,25.5910,-80.0970,0.0,30.8,2 
NDBC,ioos:station:NOAA.NDBC:FWYF1:1,2017-09-04T20:00:00Z,25.5910,-80.0970,0.0,30.9,2 
NDBC,ioos:station:NOAA.NDBC:FWYF1:1,2017-09-04T21:00:00Z,25.5910,-80.0970,0.0,30.6,2 
NDBC,ioos:station:NOAA.NDBC:FWYF1:1,2017-09-04T22:00:00Z,25.5910,-80.0970,0.0,30.5,2 
NDBC,ioos:station:NOAA.NDBC:FWYF1:1,2017-09-05T00:00:00Z,25.5910,-80.0970,0.0,30.2,2 
NDBC,ioos:station:NOAA.NDBC:FWYF1:1,2017-09-05T01:00:00Z,25.5910,-80.0970,0.0,30.1,2 
NDBC,ioos:station:NOAA.NDBC:FWYF1:1,2017-09-05T03:00:00Z,25.5910,-80.0970,0.0,29.9,2 
NDBC,ioos:station:NOAA.NDBC:FWYF1:1,2017-09-05T04:00:00Z,25.5910,-80.0970,0.0,29.9,2 
NDBC,ioos:station:NOAA.NDBC:FWYF1:1,2017-09-05T05:00:00Z,25.5910,-80.0970,0.0,30.0,2 
NDBC,ioos:station:NOAA.NDBC:FWYF1:1,2017-09-05T06:00:00Z,25.5910,-80.0970,0.0,30.0,2 
NDBC,ioos:station:NOAA.NDBC:FWYF1:1,2017-09-05T07:00:00Z,25.5910,-80.0970,0.0,30.1,2 
NDBC,ioos:station:NOAA.NDBC:FWYF1:1,2017-09-05T08:00:00Z,25.5910,-80.0970,0.0,30.1,2 
NDBC,ioos:station:NOAA.NDBC:FWYF1:1,2017-09-05T09:00:00Z,25.5910,-80.0970,0.0,30.1,2 
NDBC,ioos:station:NOAA.NDBC:FWYF1:1,2017-09-05T10:00:00Z,25.5910,-80.0970,0.0,29.9,2 
NDBC,ioos:station:NOAA.NDBC:FWYF1:1,2017-09-05T11:00:00Z,25.5910,-80.0970,0.0,29.8,2 
NDBC,ioos:station:NOAA.NDBC:FWYF1:1,2017-09-05T12:00:00Z,25.5910,-80.0970,0.0,29.8,2 
NDBC,ioos:station:NOAA.NDBC:FWYF1:1,2017-09-05T13:00:00Z,25.5910,-80.0970,0.0,29.7,2 
NDBC,ioos:station:NOAA.NDBC:FWYF1:1,2017-09-05T15:00:00Z,25.5910,-80.0970,0.0,29.9,2 
NDBC,ioos:station:NOAA.NDBC:FWYF1:1,2017-09-05T16:00:00Z,25.5910,-80.0970,0.0,30.0,2 
NDBC,ioos:station:NOAA.NDBC:FWYF1:1,2017-09-05T17:00:00Z,25.5910,-80.0970,0.0,30.1,2 
NDBC,ioos:station:NOAA.NDBC:FWYF1:1,2017-09-05T18:00:00Z,25.5910,-80.0970,0.0,30.3,2 
NDBC,ioos:station:NOAA.NDBC:FWYF1:1,2017-09-05T19:00:00Z,25.5910,-80.0970,0.0,30.4,2 
NDBC,ioos:station:NOAA.NDBC:FWYF1:1,2017-09-05T20:00:00Z,25.5910,-80.0970,0.0,30.6,2 
NDBC,ioos:station:NOAA.NDBC:FWYF1:1,2017-09-05T21:00:00Z,25.5910,-80.0970,0.0,30.5,2 
NDBC,ioos:station:NOAA.NDBC:FWYF1:1,2017-09-05T22:00:00Z,25.5910,-80.0970,0.0,30.3,2 
NDBC,ioos:station:NOAA.NDBC:FWYF1:1,2017-09-05T23:00:00Z,25.5910,-80.0970,0.0,30.2,2 
NDBC,ioos:station:NOAA.NDBC:FWYF1:1,2017-09-06T00:00:00Z,25.5910,-80.0970,0.0,30.4,2 
NDBC,ioos:station:NOAA.NDBC:FWYF1:1,2017-09-06T01:00:00Z,25.5910,-80.0970,0.0,30.2,2 
NDBC,ioos:station:NOAA.NDBC:FWYF1:1,2017-09-07T15:00:00Z,25.5910,-80.0970,0.0,30.3,2 
NDBC,ioos:station:NOAA.NDBC:FWYF1:1,2017-09-07T16:00:00Z,25.5910,-80.0970,0.0,30.4,2 
NDBC,ioos:station:NOAA.NDBC:FWYF1:1,2017-09-07T17:00:00Z,25.5910,-80.0970,0.0,30.5,2 
NDBC,ioos:station:NOAA.NDBC:FWYF1:1,2017-09-07T18:00:00Z,25.5910,-80.0970,0.0,30.5,2 
NDBC,ioos:station:NOAA.NDBC:FWYF1:1,2017-09-07T19:00:00Z,25.5910,-80.0970,0.0,30.7,2 
NDBC,ioos:station:NOAA.NDBC:FWYF1:1,2017-09-07T20:00:00Z,25.5910,-80.0970,0.0,30.9,2 
NDBC,ioos:station:NOAA.NDBC:FWYF1:1,2017-09-07T21:00:00Z,25.5910,-80.0970,0.0,31.0,2 
NDBC,ioos:station:NOAA.NDBC:FWYF1:1,2017-09-07T22:00:00Z,25.5910,-80.0970,0.0,31.1,2 
NDBC,ioos:station:NOAA.NDBC:FWYF1:1,2017-09-07T23:00:00Z,25.5910,-80.0970,0.0,31.0,2 
NDBC,ioos:station:NOAA.NDBC:FWYF1:1,2017-09-08T00:00:00Z,25.5910,-80.0970,0.0,31.0,2 
NDBC,ioos:station:NOAA.NDBC:FWYF1:1,2017-09-08T01:00:00Z,25.5910,-80.0970,0.0,30.9,2 
NDBC,ioos:station:NOAA.NDBC:FWYF1:1,2017-09-08T02:00:00Z,25.5910,-80.0970,0.0,30.7,2 
NDBC,ioos:station:NOAA.NDBC:FWYF1:1,2017-09-08T03:00:00Z,25.5910,-80.0970,0.0,30.6,2 
NDBC,ioos:station:NOAA.NDBC:FWYF1:1,2017-09-08T04:00:00Z,25.5910,-80.0970,0.0,30.6,2 
NDBC,ioos:station:NOAA.NDBC:FWYF1:1,2017-09-08T05:00:00Z,25.5910,-80.0970,0.0,30.5,2 
NDBC,ioos:station:NOAA.NDBC:FWYF1:1,2017-09-08T06:00:00Z,25.5910,-80.0970,0.0,30.7,2 
NDBC,ioos:station:NOAA.NDBC:FWYF1:1,2017-09-08T07:00:00Z,25.5910,-80.0970,0.0,30.8,2 
NDBC,ioos:station:NOAA.NDBC:FWYF1:1,2017-09-08T08:00:00Z,25.5910,-80.0970,0.0,30.7,2 
NDBC,ioos:station:NOAA.NDBC:FWYF1:1,2017-09-08T09:00:00Z,25.5910,-80.0970,0.0,30.7,2 
NDBC,ioos:station:NOAA.NDBC:FWYF1:1,2017-09-08T10:00:00Z,25.5910,-80.0970,0.0,30.6,2 
NDBC,ioos:station:NOAA.NDBC:FWYF1:1,2017-09-08T11:00:00Z,25.5910,-80.0970,0.0,30.6,2 
NDBC,ioos:station:NOAA.NDBC:FWYF1:1,2017-09-08T12:00:00Z,25.5910,-80.0970,0.0,30.6,2 
NDBC,ioos:station:NOAA.NDBC:FWYF1:1,2017-09-08T13:00:00Z,25.5910,-80.0970,0.0,30.5,2 
NDBC,ioos:station:NOAA.NDBC:FWYF1:1,2017-09-08T14:00:00Z,25.5910,-80.0970,0.0,30.4,2 
NDBC,ioos:station:NOAA.NDBC:FWYF1:1,2017-09-08T15:00:00Z,25.5910,-80.0970,0.0,30.4,2 
NDBC,ioos:station:NOAA.NDBC:FWYF1:1,2017-09-08T16:00:00Z,25.5910,-80.0970,0.0,30.6,2 
NDBC,ioos:station:NOAA.NDBC:FWYF1:1,2017-09-08T17:00:00Z,25.5910,-80.0970,0.0,30.6,2 
NDBC,ioos:station:NOAA.NDBC:FWYF1:1,2017-09-08T18:00:00Z,25.5910,-80.0970,0.0,30.9,2 
NDBC,ioos:station:NOAA.NDBC:FWYF1:1,2017-09-08T19:00:00Z,25.5910,-80.0970,0.0,30.9,2 
NDBC,ioos:station:NOAA.NDBC:FWYF1:1,2017-09-08T20:00:00Z,25.5910,-80.0970,0.0,31.0,2 
NDBC,ioos:station:NOAA.NDBC:FWYF1:1,2017-09-08T21:00:00Z,25.5910,-80.0970,0.0,31.0,2 
NDBC,ioos:station:NOAA.NDBC:FWYF1:1,2017-09-08T22:00:00Z,25.5910,-80.0970,0.0,31.0,2 
NDBC,ioos:station:NOAA.NDBC:FWYF1:1,2017-09-08T23:00:00Z,25.5910,-80.0970,0.0,30.9,2 
NDBC,ioos:station:NOAA.NDBC:FWYF1:1,2017-09-09T00:00:00Z,25.5910,-80.0970,0.0,30.8,2 
NDBC,ioos:station:NOAA.NDBC:FWYF1:1,2017-09-09T01:00:00Z,25.5910,-80.0970,0.0,30.7,2 
NDBC,ioos:station:NOAA.NDBC:FWYF1:1,2017-09-09T02:00:00Z,25.5910,-80.0970,0.0,30.4,2 
NDBC,ioos:station:NOAA.NDBC:FWYF1:1,2017-09-09T03:00:00Z,25.5910,-80.0970,0.0,30.1,2 
NDBC,ioos:station:NOAA.NDBC:FWYF1:1,2017-09-09T05:00:00Z,25.5910,-80.0970,0.0,29.9,2 
NDBC,ioos:station:NOAA.NDBC:FWYF1:1,2017-09-09T06:00:00Z,25.5910,-80.0970,0.0,30.0,2 
NDBC,ioos:station:NOAA.NDBC:FWYF1:1,2017-09-09T07:00:00Z,25.5910,-80.0970,0.0,30.2,2 
NDBC,ioos:station:NOAA.NDBC:FWYF1:1,2017-09-09T08:00:00Z,25.5910,-80.0970,0.0,30.3,2 
NDBC,ioos:station:NOAA.NDBC:FWYF1:1,2017-09-09T09:00:00Z,25.5910,-80.0970,0.0,30.1,2 
NDBC,ioos:station:NOAA.NDBC:FWYF1:1,2017-09-09T10:00:00Z,25.5910,-80.0970,0.0,30.1,2 
NDBC,ioos:station:NOAA.NDBC:FWYF1:1,2017-09-09T11:00:00Z,25.5910,-80.0970,0.0,30.0,2 
NDBC,ioos:station:NOAA.NDBC:FWYF1:1,2017-09-09T12:00:00Z,25.5910,-80.0970,0.0,29.6,2 
NDBC,ioos:station:NOAA.NDBC:FWYF1:1,2017-09-09T13:00:00Z,25.5910,-80.0970,0.0,29.5,2 
NDBC,ioos:station:NOAA.NDBC:FWYF1:1,2017-09-09T14:00:00Z,25.5910,-80.0970,0.0,29.5,2 
NDBC,ioos:station:NOAA.NDBC:FWYF1:1,2017-09-09T15:00:00Z,25.5910,-80.0970,0.0,29.5,2 
NDBC,ioos:station:NOAA.NDBC:FWYF1:1,2017-09-09T16:00:00Z,25.5910,-80.0970,0.0,29.5,2 
NDBC,ioos:station:NOAA.NDBC:FWYF1:1,2017-09-09T17:00:00Z,25.5910,-80.0970,0.0,29.5,2 
NDBC,ioos:station:NOAA.NDBC:FWYF1:1,2017-09-09T18:00:00Z,25.5910,-80.0970,0.0,29.5,2 
NDBC,ioos:station:NOAA.NDBC:FWYF1:1,2017-09-09T19:00:00Z,25.5910,-80.0970,0.0,29.4,2 
NDBC,ioos:station:NOAA.NDBC:FWYF1:1,2017-09-09T20:00:00Z,25.5910,-80.0970,0.0,29.4,2 
NDBC,ioos:station:NOAA.NDBC:FWYF1:1,2017-09-09T21:00:00Z,25.5910,-80.0970,0.0,29.4,2 
NDBC,ioos:station:NOAA.NDBC:FWYF1:1,2017-09-09T22:00:00Z,25.5910,-80.0970,0.0,29.3,2 
NDBC,ioos:station:NOAA.NDBC:FWYF1:1,2017-09-09T23:00:00Z,25.5910,-80.0970,0.0,29.3,2 
NDBC,ioos:station:NOAA.NDBC:FWYF1:1,2017-09-10T01:00:00Z,25.5910,-80.0970,0.0,29.3,2 
NDBC,ioos:station:NOAA.NDBC:FWYF1:1,2017-09-10T02:00:00Z,25.5910,-80.0970,0.0,29.3,2 
NDBC,ioos:station:NOAA.NDBC:FWYF1:1,2017-09-10T03:00:00Z,25.5910,-80.0970,0.0,29.2,2 
NDBC,ioos:station:NOAA.NDBC:FWYF1:1,2017-09-10T06:00:00Z,25.5910,-80.0970,0.0,29.0,2 
NDBC,ioos:station:NOAA.NDBC:FWYF1:1,2017-09-10T07:00:00Z,25.5910,-80.0970,0.0,28.9,2 
NDBC,ioos:station:NOAA.NDBC:FWYF1:1,2017-09-10T08:00:00Z,25.5910,-80.0970,0.0,28.8,2 
NDBC,ioos:station:NOAA.NDBC:FWYF1:1,2017-09-10T09:00:00Z,25.5910,-80.0970,0.0,28.7,2 
NDBC,ioos:station:NOAA.NDBC:FWYF1:1,2017-09-10T10:00:00Z,25.5910,-80.0970,0.0,28.7,2 
NDBC,ioos:station:NOAA.NDBC:FWYF1:1,2017-09-10T11:00:00Z,25.5910,-80.0970,0.0,28.6,2 
NDBC,ioos:station:NOAA.NDBC:FWYF1:1,2017-09-10T12:00:00Z,25.5910,-80.0970,0.0,28.6,2 
NDBC,ioos:station:NOAA.NDBC:FWYF1:1,2017-09-10T13:00:00Z,25.5910,-80.0970,0.0,28.7,2 
NDBC,ioos:station:NOAA.NDBC:FWYF1:1,2017-09-10T14:00:00Z,25.5910,-80.0970,0.0,28.8,2 
NDBC,ioos:station:NOAA.NDBC:FWYF1:1,2017-09-10T15:00:00Z,25.5910,-80.0970,0.0,28.8,2 
NDBC,ioos:station:NOAA.NDBC:FWYF1:1,2017-09-10T16:00:00Z,25.5910,-80.0970,0.0,28.8,2 
NDBC,ioos:station:NOAA.NDBC:FWYF1:1,2017-09-10T17:00:00Z,25.5910,-80.0970,0.0,28.6,2 
NDBC,ioos:station:NOAA.NDBC:FWYF1:1,2017-09-10T18:00:00Z,25.5910,-80.0970,0.0,28.5,2 
NDBC,ioos:station:NOAA.NDBC:FWYF1:1,2017-09-10T19:00:00Z,25.5910,-80.0970,0.0,28.4,2 
NDBC,ioos:station:NOAA.NDBC:FWYF1:1,2017-09-10T20:00:00Z,25.5910,-80.0970,0.0,28.2,2 
NDBC,ioos:station:NOAA.NDBC:FWYF1:1,2017-09-10T21:00:00Z,25.5910,-80.0970,0.0,28.1,2 
NDBC,ioos:station:NOAA.NDBC:FWYF1:1,2017-09-10T22:00:00Z,25.5910,-80.0970,0.0,28.1,2 
NDBC,ioos:station:NOAA.NDBC:FWYF1:1,2017-09-11T02:00:00Z,25.5910,-80.0970,0.0,27.8,2 
NDBC,ioos:station:NOAA.NDBC:FWYF1:1,2017-09-11T04:00:00Z,25.5910,-80.0970,0.0,27.9,2 
NDBC,ioos:station:NOAA.NDBC:FWYF1:1,2017-09-11T05:00:00Z,25.5910,-80.0970,0.0,27.9,2 
NDBC,ioos:station:NOAA.NDBC:FWYF1:1,2017-09-11T06:00:00Z,25.5910,-80.0970,0.0,28.0,2 
NDBC,ioos:station:NOAA.NDBC:FWYF1:1,2017-09-11T07:00:00Z,25.5910,-80.0970,0.0,27.8,2 
NDBC,ioos:station:NOAA.NDBC:FWYF1:1,2017-09-11T08:00:00Z,25.5910,-80.0970,0.0,27.7,2 
NDBC,ioos:station:NOAA.NDBC:FWYF1:1,2017-09-11T09:00:00Z,25.5910,-80.0970,0.0,27.5,2 
NDBC,ioos:station:NOAA.NDBC:FWYF1:1,2017-09-11T10:00:00Z,25.5910,-80.0970,0.0,27.4,2 
NDBC,ioos:station:NOAA.NDBC:FWYF1:1,2017-09-11T11:00:00Z,25.5910,-80.0970,0.0,27.4,2 
NDBC,ioos:station:NOAA.NDBC:FWYF1:1,2017-09-11T12:00:00Z,25.5910,-80.0970,0.0,27.3,2 
NDBC,ioos:station:NOAA.NDBC:FWYF1:1,2017-09-11T13:00:00Z,25.5910,-80.0970,0.0,27.5,2 
NDBC,ioos:station:NOAA.NDBC:FWYF1:1,2017-09-11T14:00:00Z,25.5910,-80.0970,0.0,27.6,2 
NDBC,ioos:station:NOAA.NDBC:FWYF1:1,2017-09-11T15:00:00Z,25.5910,-80.0970,0.0,27.6,2 
NDBC,ioos:station:NOAA.NDBC:FWYF1:1,2017-09-11T16:00:00Z,25.5910,-80.0970,0.0,27.7,2 
NDBC,ioos:station:NOAA.NDBC:FWYF1:1,2017-09-11T17:00:00Z,25.5910,-80.0970,0.0,27.8,2 
NDBC,ioos:station:NOAA.NDBC:FWYF1:1,2017-09-11T18:00:00Z,25.5910,-80.0970,0.0,27.9,2 
NDBC,ioos:station:NOAA.NDBC:FWYF1:1,2017-09-11T19:00:00Z,25.5910,-80.0970,0.0,27.9,2 
NDBC,ioos:station:NOAA.NDBC:FWYF1:1,2017-09-11T20:00:00Z,25.5910,-80.0970,0.0,28.0,2 
NDBC,ioos:station:NOAA.NDBC:FWYF1:1,2017-09-11T21:00:00Z,25.5910,-80.0970,0.0,28.1,2 
NDBC,ioos:station:NOAA.NDBC:FWYF1:1,2017-09-11T22:00:00Z,25.5910,-80.0970,0.0,28.1,2 
NDBC,ioos:station:NOAA.NDBC:FWYF1:1,2017-09-12T01:00:00Z,25.5910,-80.0970,0.0,27.9,2 
NDBC,ioos:station:NOAA.NDBC:FWYF1:1,2017-09-12T02:00:00Z,25.5910,-80.0970,0.0,27.8,2 
NDBC,ioos:station:NOAA.NDBC:FWYF1:1,2017-09-12T04:00:00Z,25.5910,-80.0970,0.0,27.7,2 
NDBC,ioos:station:NOAA.NDBC:FWYF1:1,2017-09-12T05:00:00Z,25.5910,-80.0970,0.0,27.6,2 
NDBC,ioos:station:NOAA.NDBC:FWYF1:1,2017-09-12T06:00:00Z,25.5910,-80.0970,0.0,27.6,2 
NDBC,ioos:station:NOAA.NDBC:FWYF1:1,2017-09-12T07:00:00Z,25.5910,-80.0970,0.0,27.6,2 
NDBC,ioos:station:NOAA.NDBC:FWYF1:1,2017-09-12T08:00:00Z,25.5910,-80.0970,0.0,27.6,2 
NDBC,ioos:station:NOAA.NDBC:FWYF1:1,2017-09-12T09:00:00Z,25.5910,-80.0970,0.0,27.7,2 
NDBC,ioos:station:NOAA.NDBC:FWYF1:1,2017-09-12T10:00:00Z,25.5910,-80.0970,0.0,27.6,2 
NDBC,ioos:station:NOAA.NDBC:FWYF1:1,2017-09-12T11:00:00Z,25.5910,-80.0970,0.0,27.6,2 
NDBC,ioos:station:NOAA.NDBC:FWYF1:1,2017-09-12T12:00:00Z,25.5910,-80.0970,0.0,27.6,2 
NDBC,ioos:station:NOAA.NDBC:FWYF1:1,2017-09-12T13:00:00Z,25.5910,-80.0970,0.0,27.6,2 
NDBC,ioos:station:NOAA.NDBC:FWYF1:1,2017-09-12T14:00:00Z,25.5910,-80.0970,0.0,27.7,2 
NDBC,ioos:station:NOAA.NDBC:FWYF1:1,2017-09-12T15:00:00Z,25.5910,-80.0970,0.0,27.8,2 
NDBC,ioos:station:NOAA.NDBC:FWYF1:1,2017-09-12T16:00:00Z,25.5910,-80.0970,0.0,27.8,2 
NDBC,ioos:station:NOAA.NDBC:FWYF1:1,2017-09-12T17:00:00Z,25.5910,-80.0970,0.0,27.9,2 
NDBC,ioos:station:NOAA.NDBC:FWYF1:1,2017-09-12T18:00:00Z,25.5910,-80.0970,0.0,28.0,2 
NDBC,ioos:station:NOAA.NDBC:FWYF1:1,2017-09-12T19:00:00Z,25.5910,-80.0970,0.0,28.0,2 
NDBC,ioos:station:NOAA.NDBC:FWYF1:1,2017-09-12T20:00:00Z,25.5910,-80.0970,0.0,28.1,2 
NDBC,ioos:station:NOAA.NDBC:FWYF1:1,2017-09-12T21:00:00Z,25.5910,-80.0970,0.0,28.1,2 
NDBC,ioos:station:NOAA.NDBC:FWYF1:1,2017-09-12T22:00:00Z,25.5910,-80.0970,0.0,28.2,2 
NDBC,ioos:station:NOAA.NDBC:FWYF1:1,2017-09-12T23:00:00Z,25.5910,-80.0970,0.0,28.1,2 
NDBC,ioos:station:NOAA.NDBC:FWYF1:1,2017-09-13T01:00:00Z,25.5910,-80.0970,0.0,28.2,2 
NDBC,ioos:station:NOAA.NDBC:FWYF1:1,2017-09-13T03:00:00Z,25.5910,-80.0970,0.0,28.1,2 
NDBC,ioos:station:NOAA.NDBC:FWYF1:1,2017-09-13T04:00:00Z,25.5910,-80.0970,0.0,28.0,2 
NDBC,ioos:station:NOAA.NDBC:FWYF1:1,2017-09-13T05:00:00Z,25.5910,-80.0970,0.0,27.9,2 
NDBC,ioos:station:NOAA.NDBC:FWYF1:1,2017-09-13T06:00:00Z,25.5910,-80.0970,0.0,27.9,2 
NDBC,ioos:station:NOAA.NDBC:FWYF1:1,2017-09-13T07:00:00Z,25.5910,-80.0970,0.0,27.9,2 
NDBC,ioos:station:NOAA.NDBC:FWYF1:1,2017-09-13T08:00:00Z,25.5910,-80.0970,0.0,27.9,2 
NDBC,ioos:station:NOAA.NDBC:FWYF1:1,2017-09-13T09:00:00Z,25.5910,-80.0970,0.0,27.9,2 
NDBC,ioos:station:NOAA.NDBC:FWYF1:1,2017-09-13T10:00:00Z,25.5910,-80.0970,0.0,27.9,2 
NDBC,ioos:station:NOAA.NDBC:FWYF1:1,2017-09-13T11:00:00Z,25.5910,-80.0970,0.0,27.9,2 
NDBC,ioos:station:NOAA.NDBC:FWYF1:1,2017-09-13T12:00:00Z,25.5910,-80.0970,0.0,27.9,2 
NDBC,ioos:station:NOAA.NDBC:FWYF1:1,2017-09-13T13:00:00Z,25.5910,-80.0970,0.0,27.9,2 
NDBC,ioos:station:NOAA.NDBC:FWYF1:1,2017-09-13T14:00:00Z,25.5910,-80.0970,0.0,28.0,2 
NDBC,ioos:station:NOAA.NDBC:FWYF1:1,2017-09-13T15:00:00Z,25.5910,-80.0970,0.0,28.0,2 
NDBC,ioos:station:NOAA.NDBC:FWYF1:1,2017-09-13T16:00:00Z,25.5910,-80.0970,0.0,28.0,2 
NDBC,ioos:station:NOAA.NDBC:FWYF1:1,2017-09-13T17:00:00Z,25.5910,-80.0970,0.0,28.1,2 
NDBC,ioos:station:NOAA.NDBC:FWYF1:1,2017-09-13T18:00:00Z,25.5910,-80.0970,0.0,28.1,2 
NDBC,ioos:station:NOAA.NDBC:FWYF1:1,2017-09-13T19:00:00Z,25.5910,-80.0970,0.0,28.2,2 
NDBC,ioos:station:NOAA.NDBC:FWYF1:1,2017-09-13T20:00:00Z,25.5910,-80.0970,0.0,28.3,2 
NDBC,ioos:station:NOAA.NDBC:FWYF1:1,2017-09-13T21:00:00Z,25.5910,-80.0970,0.0,28.2,2 
NDBC,ioos:station:NOAA.NDBC:FWYF1:1,2017-09-13T22:00:00Z,25.5910,-80.0970,0.0,28.3,2 
NDBC,ioos:station:NOAA.NDBC:FWYF1:1,2017-09-13T23:00:00Z,25.5910,-80.0970,0.0,28.5,2 
NDBC,ioos:station:NOAA.NDBC:FWYF1:1,2017-09-14T00:00:00Z,25.5910,-80.0970,0.0,28.5,2 
NDBC,ioos:station:NOAA.NDBC:FWYF1:1,2017-09-14T01:00:00Z,25.5910,-80.0970,0.0,28.4,2 
NDBC,ioos:station:NOAA.NDBC:FWYF1:1,2017-09-14T02:00:00Z,25.5910,-80.0970,0.0,28.4,2 
NDBC,ioos:station:NOAA.NDBC:FWYF1:1,2017-09-14T03:00:00Z,25.5910,-80.0970,0.0,28.3,2 
NDBC,ioos:station:NOAA.NDBC:FWYF1:1,2017-09-14T04:00:00Z,25.5910,-80.0970,0.0,28.2,2 
NDBC,ioos:station:NOAA.NDBC:FWYF1:1,2017-09-14T05:00:00Z,25.5910,-80.0970,0.0,28.2,2 
NDBC,ioos:station:NOAA.NDBC:FWYF1:1,2017-09-14T06:00:00Z,25.5910,-80.0970,0.0,28.2,2 
NDBC,ioos:station:NOAA.NDBC:FWYF1:1,2017-09-14T07:00:00Z,25.5910,-80.0970,0.0,28.2,2 
NDBC,ioos:station:NOAA.NDBC:FWYF1:1,2017-09-14T08:00:00Z,25.5910,-80.0970,0.0,28.1,2 
NDBC,ioos:station:NOAA.NDBC:FWYF1:1,2017-09-14T09:00:00Z,25.5910,-80.0970,0.0,28.0,2 
NDBC,ioos:station:NOAA.NDBC:FWYF1:1,2017-09-14T10:00:00Z,25.5910,-80.0970,0.0,28.2,2 
NDBC,ioos:station:NOAA.NDBC:FWYF1:1,2017-09-14T11:00:00Z,25.5910,-80.0970,0.0,28.3,2 
NDBC,ioos:station:NOAA.NDBC:FWYF1:1,2017-09-14T12:00:00Z,25.5910,-80.0970,0.0,28.3,2 
NDBC,ioos:station:NOAA.NDBC:FWYF1:1,2017-09-14T13:00:00Z,25.5910,-80.0970,0.0,28.3,2 
NDBC,ioos:station:NOAA.NDBC:FWYF1:1,2017-09-14T14:00:00Z,25.5910,-80.0970,0.0,28.4,2 
NDBC,ioos:station:NOAA.NDBC:FWYF1:1,2017-09-14T15:00:00Z,25.5910,-80.0970,0.0,28.4,2 
NDBC,ioos:station:NOAA.NDBC:FWYF1:1,2017-09-14T16:00:00Z,25.5910,-80.0970,0.0,28.5,2 
NDBC,ioos:station:NOAA.NDBC:FWYF1:1,2017-09-14T17:00:00Z,25.5910,-80.0970,0.0,28.3,2 
NDBC,ioos:station:NOAA.NDBC:FWYF1:1,2017-09-14T18:00:00Z,25.5910,-80.0970,0.0,28.5,2 
NDBC,ioos:station:NOAA.NDBC:FWYF1:1,2017-09-14T19:00:00Z,25.5910,-80.0970,0.0,28.6,2 
NDBC,ioos:station:NOAA.NDBC:FWYF1:1,2017-09-14T21:00:00Z,25.5910,-80.0970,0.0,28.8,2 
NDBC,ioos:station:NOAA.NDBC:FWYF1:1,2017-09-14T22:00:00Z,25.5910,-80.0970,0.0,28.7,2 